[[{"header":{"parameterUnit":"m.s-1","parameterCategory":1,"la1":30.2991,"la2":30.254,"lo1":-89.0895,"lo2":-89.0444,"dy":0.0017,"dx":0.0017,"nx":28,"ny":28,"refTime":"2024-05-31T21:00:00:Z","depth":0,"parameterNumber":2,"parameterNumberName":"U-component_of_WINDS"},"data":[0,0,0,0,0,0,0,0,0,0,0,0,0,0,0,0,0,0,0,0,0,0,0,0,0,0,0,0,0,0,0,0,0,0,0,0,0,0,0,0,0,0,0,0,0,0,0,0,0,0,0,0,0,0,0,0,0,0,-6.4825,-6.4826,0,-6.4902,-6.4903,-6.4904,-6.4881,-6.488,-6.4878,-6.4877,-6.495,-6.4954,-6.4957,0,0,0,0,0,0,0,0,0,0,0,0,0,-6.4655,-6.4659,-6.4825,-6.4826,-6.4827,-6.4902,-6.4903,-6.4904,-6.4882,-6.488,-6.4878,-6.4876,-6.4949,-6.4953,-6.4957,0,0,0,0,0,0,0,0,0,0,0,0,0,-6.473,-6.466,-6.4825,-6.4825,-6.4826,-6.4902,-6.4903,-6.4904,-6.4882,-6.488,-6.4877,-6.4875,-6.4948,-6.4953,-6.4958,-6.5037,0,0,-6.4974,-6.4976,0,0,0,0,0,0,0,0,-6.4726,-6.4736,-6.4824,-6.4825,-6.4826,-6.488,-6.487,-6.4948,-6.4883,-6.486,-6.4877,-6.4874,-6.4928,-6.4935,-6.4954,-6.504,-6.5043,-6.4974,-6.4977,-6.4979,-6.4981,0,0,0,0,0,0,0,-6.4721,-6.4733,-6.4855,-6.4825,-6.4826,-6.482,-6.4828,-6.4885,-6.4906,-6.4862,-6.4861,-6.4871,-6.4928,-6.495,-6.4956,-6.5044,-6.4974,-6.4979,-6.4982,-6.4984,-6.52,-6.5202,0,0,0,0,0,0,-6.4715,-6.4729,-6.4853,-6.4857,-6.4769,-6.4825,-6.4834,-6.4865,-6.4906,-6.491,-6.4872,-6.4869,-6.4942,-6.495,-6.4958,-6.5053,-6.4979,-6.4984,-6.4987,-6.5197,-6.5201,-6.5203,0,0,0,0,0,0,-6.4712,-6.4727,-6.4849,-6.4793,-6.4808,-6.4831,-6.4865,-6.4867,-6.4888,-6.4914,-6.4917,-6.489,-6.494,-6.4951,-6.5018,-6.5056,-6.4986,-6.4991,-6.5194,-6.5198,-6.5202,-6.5244,0,0,0,0,0,0,-6.4707,-6.4726,-6.4756,-6.4794,-6.4811,-6.4909,-6.4867,-6.4871,-6.4898,-6.4894,-6.4931,-6.4935,-6.4939,-6.5011,-6.5023,-6.5061,-6.4995,-6.5191,-6.5196,-6.5201,-6.5239,-6.5249,-6.5257,0,0,0,0,0,-6.4701,-6.4763,-6.4758,-6.4773,-6.485,-6.4911,-6.4921,-6.4926,-6.4901,-6.4932,-6.4948,-6.4934,-6.5051,-6.5018,-6.5032,-6.5072,-6.5188,-6.5195,-6.52,-6.5235,-6.5247,-6.5257,0,0,0,0,0,0,-6.4726,-6.4768,-6.4762,-6.4839,-6.4872,-6.4907,-6.4945,-6.4938,-6.4977,-6.4972,-6.4976,-6.4984,-6.5053,-6.507,-6.5032,-6.5151,-6.5116,-6.5125,-6.5137,-6.5149,-6.5157,-6.5151,-6.4999,0,0,0,0,0,-6.4742,-6.4789,-6.4822,-6.4886,-6.4904,-6.4922,-6.4949,-6.4951,-6.4984,-6.4997,-6.5019,-6.505,-6.5094,-6.5123,-6.5165,-6.5243,-6.525,-6.5278,-6.5287,-6.5294,-6.5301,-6.5344,-6.5356,-6.5223,-6.5223,-6.5223,0,0,-6.4772,-6.4801,-6.483,-6.4893,-6.4918,-6.4966,-6.4934,-6.4985,-6.502,-6.5004,-6.5069,-6.5087,-6.5122,-6.5196,-6.5229,-6.5211,-6.534,-6.5302,-6.5307,-6.531,-6.5351,-6.5364,-6.5375,-6.5227,-6.5226,-6.5226,0,0,-6.4851,-6.4879,-6.4935,-6.4963,-6.5004,-6.5016,-6.503,-6.5067,-6.5079,-6.5145,-6.5134,-6.5176,-6.5252,-6.5278,-6.5301,-6.5395,-6.5383,-6.5409,-6.5454,-6.5496,-6.5507,-6.5516,-6.5549,-6.556,-6.5416,-6.5416,-6.5417,0,-6.4883,-6.4956,-6.4965,-6.5019,-6.5046,-6.5038,-6.5095,-6.5121,-6.5172,-6.5191,-6.5172,-6.5268,-6.5292,-6.5371,-6.5395,-6.5414,-6.5429,-6.5403,-6.5505,-6.5514,-6.5523,-6.5554,-6.5566,-6.5419,-6.5419,-6.5419,-6.5418,0,-6.4993,-6.5044,-6.5085,-6.5138,-6.5171,-6.5226,-6.5242,-6.5274,-6.5275,-6.5289,-6.5357,-6.5386,-6.5433,-6.5453,-6.5453,-6.5533,-6.5521,-6.5504,-6.5467,-6.5538,-6.5567,-6.558,-6.5423,-6.5422,-6.5421,-6.5421,0,0,-6.5086,-6.5147,-6.5161,-6.5185,-6.5232,-6.527,-6.5326,-6.5375,-6.5402,-6.5439,-6.5485,-6.5551,-6.5536,-6.5563,-6.5566,-6.5603,-6.5676,-6.5581,-6.5582,-6.5596,-6.5765,-6.5777,-6.579,-6.567,-6.5672,-6.5674,-6.5762,0,-6.5169,-6.5267,-6.5278,-6.5366,-6.5413,-6.5408,-6.5456,-6.5489,-6.5505,-6.5547,-6.5564,-6.561,-6.5588,-6.5604,-6.5641,-6.5659,-6.5709,-6.5653,-6.571,-6.5712,-6.5699,-6.5806,-6.5817,-6.5899,-6.5774,-6.5776,-6.5777,0,-6.5277,-6.5319,-6.5412,-6.5454,-6.5474,-6.5517,-6.5564,-6.5605,-6.5643,-6.5652,-6.5684,-6.5683,-6.574,-6.5704,-6.5782,-6.5744,-6.5768,-6.5781,-6.5785,-6.5788,-6.5747,-6.581,-6.5925,-6.5937,-6.5795,-6.5794,-6.5792,0,-6.5334,-6.5415,-6.5481,-6.5502,-6.5553,-6.5583,-6.5605,-6.5642,-6.5671,-6.5712,-6.5732,-6.5778,-6.5803,-6.5839,-6.5851,-6.5824,-6.5928,-6.5894,-6.5936,-6.5936,-6.5955,-6.5953,-6.6074,-6.5975,-6.5975,-6.5975,-6.5975,0,-6.5423,-6.548,-6.5508,-6.5548,-6.5612,-6.5625,-6.5687,-6.5708,-6.574,-6.5784,-6.5783,-6.5823,-6.5838,-6.5881,-6.5891,-6.5954,-6.5965,-6.5973,-6.5975,-6.5972,-6.5971,-6.5986,-6.598,-6.5978,-6.5977,-6.5977,-6.5976,0,-6.5496,-6.5518,-6.5589,-6.5633,-6.5645,-6.569,-6.5726,-6.5765,-6.5783,-6.5838,-6.5852,-6.5878,-6.5929,-6.5946,-6.6007,-6.6014,-6.6087,-6.6084,-6.6074,-6.6074,-6.6115,-6.611,-6.6247,-6.6265,-6.6157,-6.6158,-6.6159,0,-6.555,-6.5594,-6.5643,-6.5674,-6.5698,-6.5747,-6.5778,-6.5793,-6.5826,-6.5874,-6.5907,-6.5959,-6.6,-6.6082,-6.6106,-6.6153,-6.6151,-6.6196,-6.6157,-6.6154,-6.615,-6.6146,-6.615,-6.6202,-6.6203,-6.6204,-6.6205,0,-6.5644,-6.5653,-6.5699,-6.575,-6.5788,-6.5828,-6.5866,-6.5891,-6.5912,-6.5949,-6.6002,-6.6035,-6.61,-6.615,-6.6199,-6.6221,-6.6216,-6.6217,-6.6229,-6.6226,-6.6217,-6.6221,-6.6091,-6.6213,-6.6212,-6.6212,-6.6211,-6.6211,-6.5708,-6.5747,-6.5789,-6.584,-6.5872,-6.5909,-6.5948,-6.5972,-6.6017,-6.6072,-6.6079,-6.6136,-6.6175,-6.6241,-6.6266,-6.631,-6.6297,-6.6315,-6.6319,-6.6322,-6.6325,-6.6213,-6.6319,-6.6319,-6.6319,-6.6319,-6.6319,0,-6.58,-6.5828,-6.5876,-6.5931,-6.5972,-6.5968,-6.6011,-6.6045,-6.6096,-6.6134,-6.6176,-6.6238,-6.6289,-6.6318,-6.6368,-6.6399,-6.6398,-6.6411,-6.6408,-6.6413,-6.6334,-6.6318,-6.6411,-6.6411,-6.6411,-6.6411,-6.6411,-6.6411,-6.5853,-6.5919,-6.5934,-6.6016,-6.6043,-6.6101,-6.6126,-6.616,-6.619,-6.6261,-6.6303,-6.6323,-6.6358,-6.6411,-6.6457,-6.6464,-6.6482,-6.6496,-6.6502,-6.6428,-6.6418,-6.6409,-6.6394,-6.6501,-6.6501,-6.6576,-6.6577,-6.6578]},{"header":{"parameterUnit":"m.s-1","parameterCategory":1,"la1":30.2991,"la2":30.254,"lo1":-89.0895,"lo2":-89.0444,"dy":0.0017,"dx":0.0017,"nx":28,"ny":28,"refTime":"2024-05-31T21:00:00:Z","depth":0,"parameterNumber":3,"parameterNumberName":"V-component_of_WINDS"},"data":[0,0,0,0,0,0,0,0,0,0,0,0,0,0,0,0,0,0,0,0,0,0,0,0,0,0,0,0,0,0,0,0,0,0,0,0,0,0,0,0,0,0,0,0,0,0,0,0,0,0,0,0,0,0,0,0,0,0,4.7366,4.7365,0,4.7294,4.7293,4.7292,4.7271,4.7271,4.7271,4.7272,4.7189,4.7187,4.7184,0,0,0,0,0,0,0,0,0,0,0,0,0,4.7477,4.7475,4.7366,4.7365,4.7364,4.7294,4.7293,4.7292,4.7271,4.7271,4.7272,4.7272,4.719,4.7187,4.7184,0,0,0,0,0,0,0,0,0,0,0,0,0,4.7419,4.7474,4.7366,4.7345,4.7343,4.7294,4.7293,4.7292,4.727,4.7271,4.7272,4.7272,4.7191,4.7187,4.7183,4.7148,0,0,4.7172,4.717,0,0,0,0,0,0,0,0,4.7422,4.7415,4.7349,4.7347,4.7344,4.7292,4.7302,4.7243,4.727,4.7298,4.7272,4.7272,4.7222,4.7216,4.7201,4.7144,4.714,4.7171,4.7169,4.7167,4.7166,0,0,0,0,0,0,0,4.7426,4.7418,4.7337,4.7348,4.7345,4.7337,4.7329,4.7291,4.7257,4.7295,4.7294,4.7286,4.7221,4.7205,4.7199,4.7139,4.7171,4.7168,4.7166,4.7164,4.705,4.7049,0,0,0,0,0,0,4.7435,4.7421,4.7339,4.7335,4.7386,4.7334,4.7326,4.7308,4.7258,4.7251,4.7285,4.7285,4.7211,4.7203,4.7196,4.7151,4.7167,4.7164,4.7161,4.7051,4.705,4.7049,0,0,0,0,0,0,4.7438,4.7428,4.7342,4.7378,4.7366,4.7332,4.7312,4.7306,4.729,4.725,4.7243,4.7276,4.7211,4.7201,4.7161,4.7148,4.7162,4.7158,4.7052,4.7051,4.705,4.7062,0,0,0,0,0,0,4.7441,4.7429,4.7417,4.7378,4.7365,4.7311,4.7311,4.7304,4.7285,4.7283,4.7239,4.7232,4.7211,4.7167,4.7157,4.7143,4.7155,4.7053,4.7051,4.705,4.7063,4.7062,4.7061,0,0,0,0,0,4.7445,4.7421,4.7416,4.7407,4.7349,4.731,4.7302,4.7281,4.7284,4.727,4.7245,4.7234,4.7151,4.7163,4.7151,4.7136,4.7053,4.7052,4.705,4.7063,4.7062,4.7061,0,0,0,0,0,0,4.7456,4.7416,4.741,4.7373,4.7346,4.7307,4.7289,4.728,4.7249,4.7248,4.722,4.721,4.7172,4.715,4.7163,4.71,4.7102,4.7098,4.7115,4.7114,4.7113,4.7119,4.7152,0,0,0,0,0,4.7455,4.743,4.7394,4.7365,4.7352,4.7323,4.7305,4.7292,4.7261,4.7248,4.7219,4.7187,4.7154,4.7133,4.71,4.706,4.7049,4.7044,4.7043,4.7042,4.7039,4.7016,4.7013,4.7044,4.7044,4.7044,0,0,4.7451,4.7426,4.7411,4.7367,4.7344,4.7316,4.7313,4.7284,4.7262,4.7242,4.7204,4.7182,4.7144,4.7104,4.7084,4.7084,4.7028,4.704,4.704,4.7037,4.7014,4.7011,4.7009,4.7043,4.7043,4.7043,0,0,4.743,4.7409,4.7383,4.7361,4.7328,4.7309,4.7303,4.7265,4.7251,4.7213,4.7198,4.717,4.7114,4.7088,4.7067,4.7038,4.7027,4.7028,4.7023,4.7001,4.6998,4.6996,4.6986,4.6982,4.7025,4.7025,4.7025,0,4.7429,4.7389,4.737,4.7342,4.7323,4.7307,4.728,4.7258,4.7214,4.72,4.7202,4.7132,4.7105,4.7059,4.7053,4.7036,4.7027,4.7033,4.7001,4.6998,4.6996,4.6985,4.6982,4.7026,4.7025,4.7025,4.7025,0,4.7389,4.7361,4.7344,4.7306,4.7285,4.7257,4.7232,4.7212,4.72,4.7181,4.7141,4.7109,4.707,4.7058,4.7045,4.701,4.7011,4.7007,4.7008,4.6994,4.6983,4.6979,4.7026,4.7026,4.7026,4.7026,0,0,4.7371,4.7326,4.7319,4.7303,4.7265,4.7242,4.7213,4.7179,4.7162,4.7133,4.7107,4.7061,4.7057,4.7034,4.7017,4.6998,4.6978,4.6996,4.6995,4.6994,4.6937,4.694,4.6936,4.697,4.697,4.6969,4.694,0,4.7345,4.7297,4.7279,4.7238,4.7212,4.7197,4.7172,4.7145,4.7126,4.7099,4.7077,4.7045,4.7043,4.7029,4.701,4.6984,4.6966,4.6986,4.6944,4.6942,4.6954,4.6931,4.6934,4.6908,4.6936,4.6935,4.6935,0,4.7308,4.7283,4.724,4.7207,4.7195,4.7173,4.7141,4.7116,4.7085,4.7072,4.7048,4.7033,4.7,4.7005,4.6958,4.6972,4.6954,4.6939,4.6937,4.6932,4.6937,4.6924,4.69,4.6896,4.6928,4.6929,4.6929,0,4.73,4.7254,4.7223,4.7209,4.717,4.7155,4.7137,4.7107,4.7088,4.7058,4.7045,4.7011,4.6991,4.6964,4.694,4.6946,4.6896,4.6898,4.6883,4.6883,4.6872,4.6873,4.6844,4.6861,4.6861,4.6861,4.6861,0,4.7273,4.7247,4.7219,4.72,4.717,4.715,4.712,4.7101,4.7075,4.705,4.7034,4.701,4.698,4.6952,4.6933,4.6897,4.6888,4.6876,4.6871,4.6877,4.6879,4.6864,4.6865,4.686,4.686,4.686,4.6861,0,4.7258,4.7239,4.7204,4.7171,4.7162,4.7142,4.7112,4.7092,4.7073,4.7042,4.7033,4.7003,4.6969,4.6943,4.6898,4.6885,4.6847,4.6841,4.6858,4.6856,4.6842,4.6844,4.6802,4.6795,4.6818,4.6817,4.6817,0,4.7242,4.7223,4.7189,4.7173,4.7157,4.713,4.7112,4.709,4.7071,4.7035,4.7018,4.6985,4.6956,4.6902,4.6875,4.684,4.6833,4.6821,4.6828,4.6835,4.6833,4.6834,4.6832,4.682,4.682,4.682,4.682,0,4.7216,4.7207,4.7183,4.7155,4.7133,4.7109,4.7084,4.7071,4.7045,4.7024,4.6991,4.697,4.6926,4.6892,4.6855,4.6834,4.6822,4.6818,4.6813,4.6819,4.683,4.6824,4.6856,4.6819,4.6819,4.6819,4.6819,4.6819,4.7199,4.7182,4.7156,4.7129,4.7109,4.7087,4.7067,4.7047,4.702,4.6985,4.6973,4.694,4.6909,4.6859,4.6838,4.6809,4.6808,4.68,4.6798,4.6797,4.6797,4.6835,4.6802,4.6802,4.6802,4.6802,4.6802,0,4.7172,4.7156,4.7131,4.7099,4.7077,4.7072,4.7044,4.7026,4.6998,4.6971,4.6945,4.6907,4.6874,4.6845,4.681,4.6793,4.6787,4.6785,4.6785,4.6781,4.68,4.6808,4.6791,4.6791,4.6791,4.6791,4.6791,4.6791,4.7155,4.7126,4.7115,4.7074,4.7057,4.7026,4.7011,4.699,4.6969,4.6929,4.6903,4.6886,4.6857,4.6821,4.679,4.6782,4.677,4.6769,4.6759,4.6778,4.6779,4.6781,4.6788,4.6767,4.6767,4.6743,4.6742,4.6742]}]]